When you browse on this site, cookies collect data to enhance your experience and personalize the content and advertising you see.
Visit our Privacy Policy to learn more. By continuing to use the site, you agree to this use of cookies and data.
  • In Portugal
  • List of Countries
  • For 7 days
  • Water Temperature
  • Satellite Maps
  • Weather Map
  • Weather Widgets
  • user-avatar
    Login

    Hourly Weather Wexford

    Today, 20 November, Tuesday

    Time Temperature Precipitation Wind Pressure Humidity
    00:00 +3°C° 0 mm 9 mps 763 mmHg 81%
    01:00 +3°C° 0.1 mm 9 mps 762 mmHg 82%
    02:00 +3°C° 0.1 mm 9 mps 762 mmHg 82%
    03:00 +2°C° 0.1 mm 9 mps 762 mmHg 82%
    04:00 +2°C° 0.1 mm 9 mps 762 mmHg 82%
    05:00 +2°C° 0.1 mm 9 mps 762 mmHg 82%
    06:00 +2°C° 0 mm 9 mps 761 mmHg 82%
    07:00 +3°C° 0.1 mm 9 mps 761 mmHg 82%
    08:00 +3°C° 0.1 mm 9 mps 761 mmHg 82%
    09:00 +3°C° 0.1 mm 9 mps 760 mmHg 82%
    10:00 +5°C° 0.2 mm 9 mps 760 mmHg 80%
    11:00 +5°C° 0.2 mm 10 mps 760 mmHg 77%
    12:00 +6°C° 0.2 mm 10 mps 759 mmHg 75%
    13:00 +6°C° 0.1 mm 9 mps 759 mmHg 75%
    14:00 +6°C° 0.1 mm 9 mps 758 mmHg 76%
    15:00 +5°C° 0.1 mm 9 mps 757 mmHg 76%
    16:00 +5°C° 0.4 mm 9 mps 757 mmHg 79%
    17:00 +3°C° 0.4 mm 9 mps 757 mmHg 81%
    18:00 +3°C° 0.4 mm 9 mps 756 mmHg 84%
    19:00 +3°C° 0.4 mm 9 mps 756 mmHg 84%
    20:00 +4°C° 0.4 mm 8 mps 756 mmHg 85%
    21:00 +4°C° 0.4 mm 8 mps 756 mmHg 85%
    22:00 +2°C° 0.1 mm 8 mps 756 mmHg 85%
    23:00 +3°C° 0.1 mm 7 mps 756 mmHg 85%

    Tomorrow, 21 November, Wednesday

    Time Temperature Precipitation Wind Pressure Humidity
    00:00 +2°C° 0.1 mm 7 mps 755 mmHg 86%
    01:00 +2°C° 0.1 mm 7 mps 755 mmHg 86%
    02:00 +1°C° 0.1 mm 6 mps 755 mmHg 87%
    03:00 +1°C° 0.1 mm 6 mps 755 mmHg 88%
    04:00 +1°C° 0.1 mm 5 mps 754 mmHg 88%
    05:00 +1°C° 0.1 mm 4 mps 754 mmHg 89%
    06:00 +1°C° 0.1 mm 4 mps 754 mmHg 90%
    07:00 +3°C° 0.2 mm 3 mps 754 mmHg 90%
    08:00 +3°C° 0.2 mm 3 mps 754 mmHg 90%
    09:00 +3°C° 0.2 mm 3 mps 754 mmHg 90%
    10:00 +4°C° 0.2 mm 3 mps 754 mmHg 87%
    11:00 +4°C° 0.2 mm 4 mps 755 mmHg 85%
    12:00 +5°C° 0.2 mm 4 mps 755 mmHg 82%
    13:00 +5°C° 0.2 mm 4 mps 755 mmHg 82%
    14:00 +5°C° 0.2 mm 4 mps 755 mmHg 83%
    15:00 +5°C° 0.2 mm 4 mps 756 mmHg 84%
    16:00 +4°C° 0.1 mm 4 mps 756 mmHg 86%
    17:00 +4°C° 0.1 mm 4 mps 757 mmHg 88%
    18:00 +3°C° 0.1 mm 4 mps 757 mmHg 90%
    19:00 +2°C° 0 mm 5 mps 757 mmHg 89%
    20:00 +2°C° 0 mm 6 mps 758 mmHg 88%
    21:00 +3°C° 0 mm 7 mps 758 mmHg 87%
    22:00 +4°C° 0.2 mm 8 mps 758 mmHg 87%
    23:00 +5°C° 0.2 mm 9 mps 759 mmHg 86%

    Day after tomorrow, 22 November, Thursday

    Time Temperature Precipitation Wind Pressure Humidity
    00:00 +6°C° 0.2 mm 10 mps 759 mmHg 86%
    01:00 +5°C° 0.1 mm 9 mps 759 mmHg 86%
    02:00 +5°C° 0.1 mm 9 mps 760 mmHg 87%
    03:00 +5°C° 0.1 mm 8 mps 760 mmHg 88%
    04:00 +4°C° 0 mm 8 mps 760 mmHg 88%
    05:00 +4°C° 0 mm 8 mps 760 mmHg 88%
    06:00 +4°C° 0 mm 8 mps 760 mmHg 88%
    07:00 +2°C° 0 mm 8 mps 760 mmHg 88%
    08:00 +2°C° 0 mm 8 mps 761 mmHg 88%
    09:00 +2°C° 0 mm 8 mps 761 mmHg 88%
    10:00 +2°C° 0 mm 8 mps 761 mmHg 85%
    11:00 +4°C° 0 mm 8 mps 761 mmHg 82%
    12:00 +5°C° 0 mm 8 mps 760 mmHg 79%
    13:00 +4°C° 0 mm 8 mps 760 mmHg 78%
    14:00 +4°C° 0 mm 7 mps 760 mmHg 78%
    15:00 +4°C° 0 mm 7 mps 760 mmHg 78%
    16:00 +3°C° 0 mm 7 mps 760 mmHg 81%
    17:00 +3°C° 0 mm 7 mps 760 mmHg 83%
    18:00 +2°C° 0 mm 7 mps 759 mmHg 86%
    19:00 +3°C° 0 mm 7 mps 759 mmHg 87%
    20:00 +3°C° 0 mm 7 mps 759 mmHg 87%
    21:00 +4°C° 0 mm 7 mps 759 mmHg 87%
    22:00 +4°C° 0.1 mm 7 mps 759 mmHg 88%
    23:00 +5°C° 0.1 mm 7 mps 759 mmHg 89%

    23 November, Friday

    Time Temperature Precipitation Wind Pressure Humidity
    00:00 +5°C° 0.1 mm 7 mps 759 mmHg 90%
    01:00 +5°C° 0.1 mm 7 mps 759 mmHg 91%
    02:00 +5°C° 0.1 mm 7 mps 759 mmHg 91%
    03:00 +6°C° 0.1 mm 8 mps 759 mmHg 92%
    04:00 +6°C° 0.2 mm 7 mps 759 mmHg 92%
    05:00 +6°C° 0.2 mm 7 mps 759 mmHg 92%
    06:00 +6°C° 0.2 mm 7 mps 759 mmHg 92%
    07:00 +7°C° 0.1 mm 6 mps 759 mmHg 92%
    08:00 +7°C° 0.1 mm 6 mps 759 mmHg 93%
    09:00 +7°C° 0.1 mm 5 mps 759 mmHg 93%
    10:00 +8°C° 0.1 mm 5 mps 759 mmHg 91%
    11:00 +8°C° 0.1 mm 5 mps 759 mmHg 90%
    12:00 +9°C° 0.1 mm 5 mps 759 mmHg 89%
    13:00 +9°C° 0 mm 5 mps 759 mmHg 89%
    14:00 +9°C° 0 mm 5 mps 759 mmHg 90%
    15:00 +8°C° 0 mm 5 mps 758 mmHg 91%
    16:00 +8°C° 0 mm 5 mps 758 mmHg 92%
    17:00 +7°C° 0 mm 5 mps 759 mmHg 94%
    18:00 +5°C° 0 mm 6 mps 759 mmHg 96%
    19:00 +6°C° 0.1 mm 5 mps 759 mmHg 95%
    20:00 +6°C° 0.1 mm 5 mps 759 mmHg 95%
    21:00 +6°C° 0.1 mm 5 mps 759 mmHg 95%
    22:00 +6°C° 0.1 mm 5 mps 759 mmHg 95%
    23:00 +6°C° 0.1 mm 5 mps 759 mmHg 94%

    24 November, Saturday

    Time Temperature Precipitation Wind Pressure Humidity
    00:00 +7°C° 0.1 mm 5 mps 759 mmHg 94%
    01:00 +6°C° 0.1 mm 5 mps 759 mmHg 95%
    02:00 +6°C° 0.1 mm 5 mps 760 mmHg 95%
    03:00 +6°C° 0.1 mm 5 mps 760 mmHg 95%
    04:00 +6°C° 0 mm 5 mps 760 mmHg 95%
    05:00 +5°C° 0 mm 5 mps 760 mmHg 95%
    06:00 +5°C° 0 mm 5 mps 760 mmHg 95%
    07:00 +5°C° 0 mm 5 mps 760 mmHg 94%
    08:00 +5°C° 0 mm 5 mps 761 mmHg 94%
    09:00 +5°C° 0 mm 4 mps 761 mmHg 93%
    10:00 +6°C° 0 mm 4 mps 761 mmHg 90%
    11:00 +7°C° 0 mm 4 mps 761 mmHg 87%
    12:00 +8°C° 0 mm 4 mps 762 mmHg 84%
    13:00 +7°C° 0 mm 4 mps 761 mmHg 84%
    14:00 +7°C° 0 mm 4 mps 761 mmHg 84%
    15:00 +7°C° 0 mm 4 mps 761 mmHg 84%
    16:00 +7°C° 0 mm 4 mps 762 mmHg 86%
    17:00 +6°C° 0 mm 4 mps 762 mmHg 88%
    18:00 +5°C° 0 mm 4 mps 762 mmHg 90%
    19:00 +5°C° 0 mm 4 mps 762 mmHg 91%
    20:00 +5°C° 0 mm 4 mps 763 mmHg 91%
    21:00 +5°C° 0 mm 4 mps 763 mmHg 92%
    22:00 +5°C° 0 mm 4 mps 763 mmHg 92%
    23:00 +4°C° 0 mm 4 mps 763 mmHg 93%

    25 November, Sunday

    Time Temperature Precipitation Wind Pressure Humidity
    00:00 +4°C° 0 mm 3 mps 763 mmHg 93%
    01:00 +4°C° 0 mm 3 mps 763 mmHg 93%
    02:00 +5°C° 0 mm 3 mps 763 mmHg 93%
    03:00 +5°C° 0 mm 3 mps 763 mmHg 92%
    04:00 +4°C° 0 mm 3 mps 763 mmHg 93%
    05:00 +4°C° 0 mm 3 mps 763 mmHg 93%
    06:00 +4°C° 0 mm 4 mps 763 mmHg 94%
    07:00 +4°C° 0 mm 3 mps 763 mmHg 93%
    08:00 +4°C° 0 mm 3 mps 763 mmHg 93%
    09:00 +4°C° 0 mm 3 mps 764 mmHg 93%
    10:00 +5°C° 0 mm 3 mps 764 mmHg 89%
    11:00 +6°C° 0 mm 4 mps 764 mmHg 85%
    12:00 +7°C° 0 mm 4 mps 763 mmHg 82%
    13:00 +7°C° 0 mm 4 mps 763 mmHg 83%
    14:00 +7°C° 0 mm 4 mps 763 mmHg 85%
    15:00 +7°C° 0 mm 4 mps 763 mmHg 87%
    16:00 +7°C° 0.1 mm 5 mps 763 mmHg 88%
    17:00 +6°C° 0.1 mm 5 mps 763 mmHg 90%
    18:00 +5°C° 0.1 mm 6 mps 762 mmHg 92%
    19:00 +5°C° 0.2 mm 6 mps 762 mmHg 91%
    20:00 +5°C° 0.2 mm 6 mps 762 mmHg 91%
    21:00 +5°C° 0.2 mm 7 mps 762 mmHg 91%
    22:00 +5°C° 0.1 mm 7 mps 762 mmHg 91%
    23:00 +5°C° 0.1 mm 8 mps 762 mmHg 91%
    Show more